Wind_Speed
21 24 28 30 32 34 36 38 39 40 41 42 42 42 43 45 45 44 44 45 44 41 38 32 28 25 25 27 27 28 29 28 24 23 23 21 19 18 18 17 19 20 22 21
19 23 25 28 30 33 35 36 38 39 41 41 42 42 44 45 46 45 44 44 43 42 40 35 30 27 25 29 29 30 32 33 29 26 24 21 19 19 19 20 21 23 24 22
22 23 25 28 30 32 34 35 36 37 38 39 40 41 42 44 46 47 45 43 42 41 39 37 33 30 27 29 30 31 34 36 35 31 27 24 23 22 21 21 22 24 25 24
20 22 25 28 30 32 33 34 35 35 34 35 36 37 36 38 40 43 44 44 41 40 38 37 36 33 32 31 32 33 36 38 38 33 28 26 24 23 22 23 24 25 26 26
25 28 30 32 34 36 38 38 38 37 36 36 35 37 37 36 35 35 37 40 41 39 37 36 36 35 36 37 37 38 39 40 41 36 30 26 24 23 23 24 26 27 27 26
31 35 37 39 40 41 42 43 43 43 41 39 36 36 36 34 32 31 31 32 37 39 37 36 35 36 39 40 42 42 43 43 44 40 33 28 24 23 25 27 27 27 27 26
35 40 43 44 45 45 46 46 47 47 45 42 37 36 36 32 29 27 26 27 30 36 38 38 37 37 39 42 44 45 47 47 47 43 36 29 25 24 26 27 27 27 28 27
41 44 47 50 50 50 48 48 47 47 45 42 39 37 35 31 28 26 24 23 25 31 37 40 40 40 40 41 43 47 50 47 49 46 37 28 23 23 24 26 27 27 27 27
48 48 51 52 53 53 52 50 47 44 42 40 37 33 30 27 27 25 23 21 23 27 32 36 39 40 40 40 40 44 46 46 43 37 29 23 20 21 22 23 24 25 26 27
44 41 39 38 35 34 35 33 30 29 27 26 26 25 24 22 23 25 24 22 22 22 25 29 33 35 38 38 37 32 34 34 32 27 21 19 18 19 20 22 24 26 28 29
31 26 23 21 19 18 17 16 14 12 14 17 18 17 16 16 18 21 21 20 18 15 15 19 24 27 28 32 33 29 25 25 24 20 17 16 16 17 21 24 26 28 29 30
27 24 22 21 21 18 16 11 6 1 3 8 10 8 8 9 10 12 13 15 14 10 6 7 6 2 6 10 12 12 13 15 14 12 12 13 16 19 22 23 24 24 25 26
26 23 21 21 22 22 20 18 12 10 8 5 3 1 2 3 2 4 5 8 10 6 3 5 7 11 13 12 9 6 4 3 6 9 12 15 16 16 16 17 18 20 20 21
27 24 23 23 23 23 21 20 17 14 11 9 7 6 8 8 4 2 4 6 9 8 8 9 10 11 11 9 6 2 1 4 7 11 13 14 13 13 14 16 17 18 18 18
28 25 23 23 23 23 22 21 20 18 16 14 12 11 11 10 7 6 6 7 9 10 10 11 11 9 7 4 1 2 5 8 11 13 14 14 14 14 15 17 19 18 17 17
28 27 26 25 25 24 22 20 19 18 17 15 13 13 14 13 10 7 8 9 9 10 10 11 9 5 1 3 4 6 8 10 12 14 14 14 15 16 17 19 20 18 16 16
26 27 28 28 27 26 21 19 19 19 19 18 18 18 18 16 14 11 10 11 11 10 8 9 9 7 6 5 4 4 5 8 10 12 13 14 15 17 19 19 17 16 16 17
21 22 24 25 26 24 22 19 18 19 21 22 24 22 21 20 19 18 16 13 10 7 4 3 4 4 3 1 1 3 5 8 11 12 13 15 17 18 18 18 17 16 17 18
19 20 21 22 23 24 21 17 14 12 15 18 19 21 21 22 23 21 20 18 15 11 9 7 6 5 5 4 4 5 7 10 12 13 14 15 17 18 18 19 19 19 18 18
18 19 21 21 21 21 21 19 15 12 12 14 15 17 20 22 21 20 20 19 17 15 13 11 10 9 9 8 9 9 10 11 12 13 15 17 18 20 20 21 21 20 18 16
19 19 20 20 20 19 18 17 16 13 12 13 13 14 15 16 15 15 17 16 15 14 13 12 11 10 10 11 12 12 13 14 15 16 17 19 21 22 22 22 21 20 18 16
21 20 20 19 19 18 17 13 12 12 11 10 10 11 11 11 11 12 13 14 13 12 12 11 12 12 13 13 13 14 14 15 17 18 19 20 21 22 21 21 20 19 16 15
25 24 23 22 20 18 15 12 10 9 8 7 7 8 8 9 9 10 11 12 13 13 12 12 12 13 13 14 15 16 17 17 18 18 19 21 21 21 20 19 18 17 15 15
27 28 28 28 27 21 14 9 7 6 5 6 5 6 6 7 8 9 10 12 13 14 13 13 13 13 14 16 17 18 18 18 18 20 21 21 20 19 18 17 15 14 14 14
29 30 30 31 33 30 18 9 6 4 3 3 3 3 4 5 6 8 10 11 12 13 14 14 14 14 15 16 17 17 18 18 18 19 19 19 19 18 16 15 14 13 13 13
25 29 31 33 35 35 29 16 6 4 4 3 3 4 5 5 6 8 9 10 11 12 15 16 15 15 15 16 16 16 16 16 16 17 18 19 19 19 17 15 14 14 13 13
Wind_Direction
258 259 259 261 262 264 265 266 268 268 268 269 269 269 267 266 267 266 266 267 268 267 266 266 266 261 252 250 252 259 264 264 261 261 262 259 258 259 263 271 277 275 271 267
258 259 262 263 264 266 266 268 269 270 271 272 271 271 270 270 268 266 263 263 266 268 268 264 259 256 251 246 245 253 260 262 256 249 248 248 253 258 265 272 275 273 269 266
268 268 265 265 266 267 269 271 272 273 275 276 275 274 274 273 271 268 264 262 261 261 261 260 258 253 246 244 242 249 256 259 253 242 237 238 245 253 259 264 266 265 266 268
273 272 272 272 271 271 270 270 271 272 274 277 278 278 276 276 275 271 265 260 259 258 257 254 253 253 244 241 241 245 251 255 251 242 235 236 238 245 252 257 257 259 263 268
283 280 276 273 272 270 269 268 268 269 272 276 280 283 283 281 279 276 270 261 255 254 253 248 248 249 245 244 244 244 247 251 249 243 237 234 234 240 248 255 258 260 263 268
287 283 281 279 277 277 276 276 276 276 276 280 283 286 286 284 281 277 272 262 252 248 246 244 244 245 245 246 246 243 244 246 247 244 238 231 233 240 248 255 260 263 266 271
292 290 288 286 285 284 284 284 284 283 282 285 286 287 286 283 279 274 270 262 251 243 240 241 243 244 245 246 246 242 242 245 244 243 236 232 236 242 248 253 257 262 267 272
295 292 289 287 286 285 284 284 284 285 285 286 285 283 281 278 274 271 268 259 246 239 238 239 240 242 242 241 242 241 241 245 246 242 235 233 238 244 247 250 256 265 274 281
303 299 294 291 289 287 287 285 284 282 280 279 278 275 272 271 270 265 260 254 246 240 241 243 243 241 239 237 241 243 241 241 243 237 232 233 237 243 250 260 268 276 283 289
316 312 308 306 303 300 295 291 286 278 271 265 260 258 260 263 265 260 254 249 247 249 255 254 250 247 241 239 241 243 239 237 236 227 231 235 238 253 267 275 281 286 292 295
344 347 350 351 347 337 325 315 301 273 251 239 237 244 250 256 264 263 253 247 248 262 276 280 274 263 247 238 238 241 240 233 228 225 231 236 250 265 277 285 288 292 296 296
19 24 25 25 24 19 14 11 9 53 200 208 215 227 239 259 272 268 256 248 247 257 288 319 321 219 180 186 200 211 209 208 214 229 245 261 273 282 289 295 300 304 305 302
25 32 35 41 44 42 41 44 58 76 97 127 159 90 308 331 274 253 254 238 224 213 160 98 95 99 100 100 106 117 133 194 243 268 282 291 297 298 306 315 318 316 311 305
29 35 41 47 51 52 51 52 59 70 84 87 81 63 45 37 44 110 124 158 174 175 146 120 110 105 103 99 95 86 272 279 287 296 303 316 323 321 322 326 326 321 312 301
33 40 42 46 51 55 58 63 67 74 80 80 73 55 49 51 60 75 102 124 150 160 153 143 137 129 122 121 144 292 293 294 295 299 310 321 325 323 320 318 315 310 304 299
38 42 45 49 51 55 61 65 70 75 79 75 63 56 58 59 69 100 134 152 158 165 169 167 164 167 216 305 298 292 291 295 297 301 307 315 321 322 321 316 309 302 298 298
38 42 45 47 48 51 59 68 74 76 75 70 67 65 66 63 63 79 120 151 163 167 179 191 205 232 268 278 277 283 295 306 309 310 311 315 318 320 321 321 315 307 303 301
30 32 35 38 39 46 53 66 76 77 75 71 72 74 77 73 71 77 90 104 118 119 134 175 208 223 240 247 260 284 297 306 310 312 313 316 319 322 325 328 326 318 308 302
22 23 25 29 33 38 43 53 66 72 74 74 77 83 85 82 79 79 81 84 84 83 81 81 80 73 63 50 25 351 331 322 317 314 313 312 314 317 321 322 321 316 308 300
18 18 19 23 27 29 31 37 48 60 73 76 82 88 88 86 83 81 80 78 75 71 66 61 54 46 35 21 5 349 337 329 324 321 318 315 314 313 313 314 314 312 307 301
16 12 11 13 16 20 22 28 39 56 69 79 84 87 85 80 77 72 69 65 61 55 49 42 36 30 21 10 359 350 342 336 332 327 322 319 317 316 314 314 314 313 306 298
18 13 8 3 3 5 9 18 32 48 61 73 82 85 83 76 71 67 63 57 50 45 42 38 32 25 17 9 0 352 347 343 338 335 332 328 325 323 321 320 318 315 308 299
24 21 14 4 356 350 352 2 20 40 56 66 73 80 79 72 67 64 58 52 48 48 46 39 31 24 19 12 4 357 354 351 349 345 340 335 332 331 330 329 325 321 315 308
22 20 19 14 7 358 344 339 358 29 61 73 64 57 57 54 50 45 44 46 48 47 39 30 25 20 15 10 4 359 357 356 353 349 347 346 346 343 342 341 338 334 328 322
17 16 16 17 17 16 10 350 335 348 22 64 58 30 23 28 32 33 34 40 46 44 36 28 23 19 16 12 8 5 2 360 359 0 1 1 0 359 358 355 351 348 343 338
14 14 14 16 17 19 19 17 358 325 321 320 329 339 346 357 15 24 27 31 35 33 27 23 21 21 20 17 14 12 9 8 8 10 13 13 14 15 14 11 7 5 3 0
Height
5856 5856 5854 5853 5852 5851 5849 5847 5846 5846 5845 5846 5846 5847 5845 5844 5846 5848 5849 5850 5851 5853 5855 5857 5858 5858 5859 5860 5861 5862 5863 5863 5863 5862 5861 5861 5862 5862 5863 5863 5862 5861 5860 5860
5853 5851 5849 5846 5844 5842 5840 5839 5837 5836 5835 5835 5836 5837 5834 5835 5835 5837 5839 5840 5842 5844 5845 5848 5850 5850 5851 5852 5853 5855 5856 5856 5855 5854 5853 5854 5856 5857 5857 5857 5856 5855 5855 5855
5849 5847 5843 5840 5837 5835 5833 5831 5829 5828 5827 5826 5826 5827 5826 5824 5824 5825 5827 5829 5831 5833 5835 5838 5840 5841 5842 5844 5846 5848 5848 5848 5846 5845 5845 5846 5848 5850 5851 5851 5850 5850 5850 5850
5844 5841 5838 5834 5831 5828 5825 5822 5820 5819 5818 5816 5815 5815 5817 5815 5813 5813 5815 5818 5821 5823 5826 5828 5831 5832 5834 5836 5837 5839 5841 5840 5839 5837 5837 5838 5840 5843 5844 5844 5844 5844 5844 5843
5839 5834 5831 5827 5823 5819 5816 5813 5811 5809 5808 5808 5806 5805 5807 5806 5805 5804 5805 5807 5810 5814 5817 5820 5822 5824 5825 5827 5828 5830 5832 5832 5831 5831 5831 5832 5834 5836 5837 5837 5838 5838 5838 5838
5832 5826 5822 5817 5812 5808 5804 5801 5799 5797 5797 5798 5797 5796 5796 5796 5796 5796 5796 5797 5800 5804 5807 5810 5813 5814 5815 5817 5818 5821 5823 5823 5824 5825 5826 5826 5827 5829 5830 5831 5832 5832 5832 5831
5824 5817 5810 5805 5801 5797 5793 5790 5786 5784 5785 5786 5787 5787 5787 5788 5788 5788 5788 5789 5790 5794 5797 5800 5802 5804 5805 5807 5808 5810 5812 5814 5817 5818 5819 5819 5820 5822 5823 5825 5825 5825 5824 5824
5815 5808 5800 5792 5786 5783 5780 5777 5775 5773 5773 5775 5777 5778 5779 5781 5781 5781 5781 5781 5783 5785 5788 5790 5793 5795 5796 5797 5799 5800 5803 5806 5808 5810 5812 5812 5813 5814 5816 5817 5817 5818 5818 5818
5800 5793 5783 5775 5769 5766 5763 5761 5759 5759 5759 5763 5766 5768 5771 5774 5774 5774 5774 5775 5777 5779 5781 5783 5785 5787 5788 5790 5790 5790 5792 5795 5800 5803 5805 5806 5806 5808 5810 5811 5812 5813 5813 5812
5786 5777 5768 5761 5756 5751 5748 5745 5745 5745 5748 5752 5757 5761 5765 5767 5767 5767 5768 5770 5772 5774 5776 5777 5778 5779 5781 5783 5785 5784 5785 5789 5794 5797 5800 5800 5801 5804 5805 5807 5808 5808 5808 5806
5778 5771 5763 5757 5751 5747 5743 5740 5737 5738 5741 5746 5751 5758 5760 5762 5763 5763 5764 5767 5769 5772 5773 5773 5773 5773 5774 5776 5778 5780 5783 5786 5790 5793 5794 5795 5797 5799 5800 5801 5802 5801 5800 5799
5779 5772 5765 5760 5754 5748 5743 5739 5738 5739 5742 5745 5750 5758 5758 5760 5760 5760 5762 5765 5767 5770 5772 5772 5772 5770 5771 5772 5775 5777 5781 5784 5787 5789 5791 5793 5795 5796 5796 5796 5795 5794 5793 5792
5783 5776 5769 5763 5760 5753 5748 5744 5742 5743 5745 5748 5751 5758 5758 5758 5758 5759 5761 5763 5766 5769 5772 5772 5773 5772 5772 5774 5777 5779 5782 5784 5786 5787 5789 5790 5791 5791 5791 5791 5789 5788 5786 5785
5787 5780 5774 5769 5762 5757 5754 5751 5749 5749 5750 5752 5755 5758 5758 5758 5758 5760 5761 5762 5765 5769 5771 5772 5773 5775 5775 5776 5779 5781 5782 5783 5784 5785 5786 5787 5787 5788 5787 5786 5785 5783 5781 5779
5792 5786 5780 5774 5769 5764 5761 5759 5757 5756 5757 5758 5759 5759 5760 5760 5760 5760 5762 5764 5766 5769 5771 5773 5775 5777 5778 5779 5780 5780 5781 5782 5783 5783 5784 5784 5785 5784 5783 5781 5780 5779 5776 5773
5799 5793 5787 5782 5776 5771 5768 5766 5765 5764 5763 5763 5763 5763 5762 5761 5761 5761 5763 5765 5767 5770 5773 5775 5777 5778 5779 5780 5780 5780 5781 5781 5782 5782 5782 5782 5781 5780 5779 5777 5775 5773 5771 5768
5806 5800 5795 5789 5784 5779 5776 5774 5772 5770 5770 5769 5767 5767 5765 5765 5765 5765 5765 5767 5770 5773 5775 5777 5778 5780 5780 5781 5780 5780 5780 5780 5780 5780 5780 5779 5778 5776 5775 5772 5770 5768 5766 5763
5812 5807 5801 5796 5793 5788 5786 5780 5779 5777 5776 5775 5773 5772 5771 5771 5770 5770 5770 5772 5774 5777 5778 5779 5779 5780 5781 5780 5780 5779 5779 5779 5779 5778 5777 5775 5773 5772 5769 5767 5764 5762 5760 5758
5816 5812 5807 5803 5799 5795 5792 5788 5785 5783 5782 5781 5780 5778 5778 5777 5776 5776 5776 5777 5778 5779 5780 5781 5781 5781 5781 5780 5780 5779 5778 5777 5776 5775 5774 5772 5770 5768 5765 5762 5760 5758 5755 5753
5820 5816 5813 5808 5805 5801 5799 5795 5791 5790 5788 5786 5785 5783 5782 5781 5781 5782 5780 5780 5781 5781 5782 5782 5782 5781 5781 5780 5779 5778 5777 5776 5774 5772 5770 5768 5766 5763 5761 5759 5756 5753 5750 5748
5824 5820 5816 5813 5809 5806 5803 5800 5798 5796 5795 5792 5791 5789 5787 5786 5786 5785 5783 5783 5782 5782 5782 5781 5781 5781 5780 5778 5777 5776 5774 5772 5770 5767 5765 5763 5761 5758 5756 5753 5751 5748 5745 5743
5827 5822 5818 5815 5811 5811 5806 5804 5802 5800 5797 5797 5796 5794 5793 5792 5791 5790 5789 5788 5787 5785 5784 5783 5782 5781 5779 5777 5776 5774 5772 5769 5767 5764 5762 5759 5756 5753 5750 5748 5745 5743 5740 5738
5830 5826 5821 5817 5815 5809 5806 5805 5804 5802 5801 5800 5799 5798 5797 5796 5795 5795 5793 5792 5790 5789 5788 5786 5784 5782 5780 5778 5776 5773 5770 5768 5765 5763 5760 5757 5753 5750 5746 5743 5740 5738 5735 5733
5834 5829 5824 5819 5813 5809 5806 5804 5804 5803 5803 5802 5801 5801 5800 5799 5798 5797 5796 5794 5792 5791 5789 5788 5785 5783 5781 5778 5776 5773 5771 5768 5765 5762 5759 5756 5752 5748 5744 5740 5737 5734 5731 5728
5837 5832 5827 5822 5816 5810 5805 5803 5803 5804 5804 5803 5803 5803 5802 5801 5801 5800 5799 5797 5795 5793 5791 5789 5787 5784 5782 5779 5777 5774 5772 5769 5766 5763 5760 5756 5752 5748 5744 5739 5736 5732 5729 5726
5840 5835 5830 5825 5820 5813 5808 5804 5803 5803 5804 5804 5803 5803 5803 5802 5802 5801 5800 5798 5797 5795 5792 5790 5788 5786 5783 5781 5779 5776 5774 5771 5768 5765 5761 5758 5753 5749 5744 5740 5736 5732 5729 5725